Location: Newark
(22.3060°N, 114.2134°E)
Time: 06:43:53
(UTC+00:00)

Vanguard 2 Rocket - All Passes

Search period start: 31 July 2021 00:00
Search period end: 10 August 2021 00:00
Orbit: 555 x 3325 km, 32.9° (Epoch: 30 July)

Date Brightness Start Highest point End Pass type
(mag) Time Alt. Az. Time Alt. Az. Time Alt. Az.
31 Jul - 00:36:30 10° WNW 00:39:43 23° N 00:43:13 10° NE daylight
31 Jul - 02:49:40 10° NW 02:53:46 30° NNE 02:59:41 10° ENE daylight
31 Jul - 05:01:23 10° WNW 05:07:31 87° NNE 05:18:43 10° ESE daylight
31 Jul - 07:14:35 10° W 07:22:38 36° SSW 07:35:45 10° SSE daylight
31 Jul - 09:35:14 10° SW 09:40:15 12° SSW 09:45:57 10° S daylight
31 Jul - 19:10:08 10° S 19:12:58 12° SSE 19:15:23 10° SE visible
31 Jul - 21:21:12 10° SW 21:27:13 49° SSE 21:31:20 10° ENE visible
31 Jul - 23:36:19 10° W 23:40:07 31° NNW 23:43:41 10° NE daylight
01 Aug - 01:50:40 10° NW 01:53:59 22° N 01:58:08 10° ENE daylight
01 Aug - 04:02:30 10° WNW 04:07:40 61° NNE 04:16:30 10° ESE daylight
01 Aug - 06:14:52 10° W 06:21:55 47° SSW 06:34:12 10° SE daylight
01 Aug - 08:31:33 10° WSW 08:38:28 17° SSW 08:47:29 10° S daylight
01 Aug - 20:20:52 10° SW 20:27:34 32° SSE 20:31:59 10° E visible
01 Aug - 22:35:45 10° W 22:40:42 50° NNW 22:44:33 10° NE daylight
02 Aug - 00:51:15 10° NW 00:54:12 20° N 00:57:25 10° NE daylight
02 Aug - 03:03:42 10° NW 03:08:01 40° NNE 03:14:32 10° E daylight
02 Aug - 05:15:34 10° WNW 05:21:38 63° SSW 05:32:29 10° SE daylight
02 Aug - 07:30:08 10° WSW 07:37:10 23° SSW 07:47:21 10° SSE daylight
02 Aug - 19:20:36 10° SSW 19:27:32 24° SSE 19:32:17 10° ESE visible
02 Aug - 21:34:58 10° WSW 21:41:20 87° NNW 21:45:34 10° ENE visible
02 Aug - 23:51:09 10° WNW 23:54:28 22° N 23:57:38 10° NE daylight
03 Aug - 02:04:51 10° NW 02:08:24 26° NNE 02:12:58 10° ENE daylight
03 Aug - 04:16:32 10° WNW 04:21:45 89° SSW 04:30:45 10° ESE daylight
03 Aug - 06:29:47 10° W 06:36:19 30° SSW 06:46:36 10° SSE daylight
03 Aug - 18:20:35 10° SSW 18:27:09 18° SSE 18:31:59 10° ESE visible
03 Aug - 20:34:02 10° SW 20:41:48 60° SSE 20:46:33 10° ENE visible
03 Aug - 22:50:26 10° W 22:54:53 31° NNW 22:58:28 10° NE daylight
04 Aug - 01:05:43 10° NW 01:08:42 20° N 01:12:00 10° ENE daylight
04 Aug - 03:17:40 10° NW 03:22:08 60° NNE 03:29:10 10° ESE daylight
04 Aug - 05:30:04 10° W 05:35:54 39° SSW 05:45:34 10° SE daylight
04 Aug - 07:47:48 10° SW 07:51:56 13° SSW 07:56:53 10° S daylight
04 Aug - 17:21:15 10° S 17:26:20 13° SSE 17:30:29 10° SE night (unlit)
04 Aug - 19:33:01 10° SW 19:41:57 42° SSE 19:47:20 10° E visible
04 Aug - 21:49:19 10° W 21:55:25 51° NNW 21:59:35 10° NE daylight
05 Aug - 00:05:56 10° NW 00:08:56 19° N 00:11:50 10° NE daylight
05 Aug - 02:18:49 10° NW 02:22:40 37° NNE 02:27:49 10° E daylight
05 Aug - 04:30:47 10° WNW 04:35:53 54° SSW 04:44:26 10° SE daylight
05 Aug - 06:45:50 10° WSW 06:50:55 17° SSW 06:57:46 10° S daylight
05 Aug - 18:32:03 10° SSW 18:41:43 31° SSE 18:47:47 10° E visible
05 Aug - 20:47:53 10° WSW 20:55:54 81° NNW 21:00:43 10° ENE visible
05 Aug - 23:05:18 10° WNW 23:09:12 23° NNW 23:12:28 10° NE daylight
06 Aug - 01:19:50 10° NW 01:23:07 24° NNE 01:26:50 10° ENE daylight
06 Aug - 03:31:43 10° WNW 03:36:13 82° SSW 03:43:21 10° ESE daylight
06 Aug - 05:45:17 10° WSW 05:50:21 23° SSW 05:57:44 10° SSE daylight
06 Aug - 17:31:16 10° SSW 17:41:03 24° SSE 17:47:40 10° ESE visible
06 Aug - 19:46:18 10° SW 19:56:11 69° SSE 20:01:46 10° ENE visible
06 Aug - 22:04:01 10° W 22:09:35 34° NNW 22:13:32 10° NE daylight
07 Aug - 00:20:22 10° NW 00:23:26 20° N 00:26:25 10° NE daylight
07 Aug - 02:32:46 10° WNW 02:36:48 61° NNE 02:42:24 10° ESE daylight
07 Aug - 04:45:27 10° W 04:50:10 30° SSW 04:57:23 10° SSE daylight
07 Aug - 16:30:58 10° S 16:39:58 18° SSE 16:46:40 10° ESE night (unlit)
07 Aug - 18:44:40 10° SW 18:56:05 50° SSE 19:02:35 10° ENE visible
07 Aug - 21:02:16 10° W 21:09:59 52° NNW 21:14:44 10° NE visible
07 Aug - 23:20:05 10° NW 23:23:39 20° N 23:26:43 10° NE daylight
08 Aug - 01:33:46 10° NW 01:37:25 36° NNE 01:41:40 10° E daylight
08 Aug - 03:46:03 10° W 03:50:22 44° SSW 03:56:57 10° SE daylight
08 Aug - 06:02:37 10° SW 06:05:00 12° SSW 06:07:43 10° S daylight
08 Aug - 15:31:53 10° S 15:38:25 13° SSE 15:43:54 10° SE night (unlit)
08 Aug - 17:43:07 10° SSW 17:55:34 39° SSE 18:03:01 10° E visible
08 Aug - 20:00:14 10° WSW 20:10:16 78° NNW 20:15:54 10° ENE visible
08 Aug - 22:18:54 10° WNW 22:23:53 26° NNW 22:27:36 10° NE daylight
09 Aug - 00:34:28 10° NW 00:37:53 25° NNE 00:41:14 10° ENE daylight
09 Aug - 02:46:51 10° WNW 02:50:53 72° SSW 02:56:32 10° ESE daylight
09 Aug - 05:01:10 10° WSW 05:04:39 16° SSW 05:09:08 10° S daylight
09 Aug - 16:41:51 10° SSW 16:54:36 30° SSE 17:02:56 10° E visible
09 Aug - 18:58:02 10° SW 19:10:16 77° SSE 19:16:54 10° ENE visible
09 Aug - 21:17:01 10° W 21:24:09 38° NNW 21:28:44 10° NE visible
09 Aug - 23:34:32 10° NW 23:38:10 22° N 23:41:18 10° NE daylight
